Location: Unspecified
(0.0000°N, 0.0000°E)
Time: 18:49:03
(UTC+00:00)

Amsat-Oscar-6 - Pass Details

Date: 01 May 2019
Orbit: 1448 x 1455 km, 101.8° (Epoch: 24 May)

Event Time Altitude Azimuth Distance (km) Brightness Sun altitude
Rises 04:05:03 0° 358° (N) 4,533 ? -27.0°
Reaches altitude 10° 04:08:06 10° 350° (N) 3,558 ? -26.3°
Maximum altitude 04:15:27 36° 287° (WNW) 2,131 ? -24.5°
Enters shadow 04:15:48 36° 281° (WNW) 2,135 ? -24.4°
